Time,TemperatureF,DewpointF,PressureIn,WindDirection,WindDirectionDegrees,WindSpeedMPH,WindSpeedGustMPH,Humidity,HourlyPrecipIn,Conditions,Clouds,dailyrainin,SoftwareType,DateUTC
2013-10-14 00:00:00,70.0,-99.9,-100.00,North,-999,9.0,14.0,42,-99.99,,,-99.99,,2013-10-14 06:00:00,
2013-10-14 00:42:00,70.0,-99.9,-100.00,North,-999,9.0,14.0,42,-99.99,,,-99.99,,2013-10-14 06:42:00,
2013-10-14 00:52:00,70.0,-99.9,-100.00,North,-999,9.0,14.0,42,-99.99,,,-99.99,,2013-10-14 06:52:00,
2013-10-14 01:00:00,69.0,-99.9,-100.00,North,-999,9.0,14.0,45,-99.99,,,-99.99,,2013-10-14 07:00:00,
2013-10-14 01:22:00,-999.0,-99.9,-100.00,North,-999,9.0,14.0,45,-99.99,,,-99.99,,2013-10-14 07:22:00,
2013-10-14 01:42:00,69.0,-99.9,-100.00,North,-999,9.0,14.0,45,-99.99,,,-99.99,,2013-10-14 07:42:00,
2013-10-14 01:52:00,69.0,-99.9,-100.00,North,-999,9.0,14.0,45,-99.99,,,-99.99,,2013-10-14 07:52:00,
2013-10-14 02:00:00,66.0,-99.9,-100.00,North,-999,6.0,11.0,50,-99.99,,,-99.99,,2013-10-14 08:00:00,
2013-10-14 02:22:00,-999.0,-99.9,-100.00,North,-999,6.0,11.0,50,-99.99,,,-99.99,,2013-10-14 08:22:00,
2013-10-14 02:42:00,66.0,-99.9,-100.00,North,-999,6.0,11.0,50,-99.99,,,-99.99,,2013-10-14 08:42:00,
2013-10-14 02:52:00,66.0,-99.9,-100.00,North,-999,6.0,11.0,50,-99.99,,,-99.99,,2013-10-14 08:52:00,
2013-10-14 03:00:00,66.0,-99.9,-100.00,North,-999,6.0,12.0,51,-99.99,,,-99.99,,2013-10-14 09:00:00,
2013-10-14 03:22:00,-999.0,-99.9,-100.00,North,-999,6.0,12.0,51,-99.99,,,-99.99,,2013-10-14 09:22:00,
2013-10-14 03:43:00,66.0,-99.9,-100.00,North,-999,6.0,12.0,51,-99.99,,,-99.99,,2013-10-14 09:43:00,
2013-10-14 03:53:00,66.0,-99.9,-100.00,North,-999,6.0,12.0,51,-99.99,,,-99.99,,2013-10-14 09:53:00,
2013-10-14 04:00:00,64.0,-99.9,-100.00,North,-999,5.0,9.0,53,-99.99,,,-99.99,,2013-10-14 10:00:00,
2013-10-14 04:23:00,-999.0,-99.9,-100.00,North,-999,5.0,9.0,53,-99.99,,,-99.99,,2013-10-14 10:23:00,
2013-10-14 04:43:00,64.0,-99.9,-100.00,North,-999,5.0,9.0,53,-99.99,,,-99.99,,2013-10-14 10:43:00,
2013-10-14 04:53:00,64.0,-99.9,-100.00,North,-999,5.0,9.0,53,-99.99,,,-99.99,,2013-10-14 10:53:00,
2013-10-14 05:00:00,63.0,-99.9,-100.00,North,-999,5.0,9.0,57,-99.99,,,-99.99,,2013-10-14 11:00:00,
2013-10-14 05:42:00,63.0,-99.9,-100.00,North,-999,5.0,9.0,57,-99.99,,,-99.99,,2013-10-14 11:42:00,
2013-10-14 05:52:00,63.0,-99.9,-100.00,North,-999,5.0,9.0,57,-99.99,,,-99.99,,2013-10-14 11:52:00,
2013-10-14 06:00:00,61.0,-99.9,-100.00,North,-999,5.0,8.0,60,-99.99,,,-99.99,,2013-10-14 12:00:00,
2013-10-14 06:23:00,-999.0,-99.9,-100.00,North,-999,5.0,8.0,60,-99.99,,,-99.99,,2013-10-14 12:23:00,
2013-10-14 06:42:00,61.0,-99.9,-100.00,North,-999,5.0,8.0,60,-99.99,,,-99.99,,2013-10-14 12:42:00,
2013-10-14 06:52:00,61.0,-99.9,-100.00,North,-999,5.0,8.0,60,-99.99,,,-99.99,,2013-10-14 12:52:00,
2013-10-14 07:00:00,60.0,-99.9,-100.00,North,-999,2.0,4.0,60,-99.99,,,-99.99,,2013-10-14 13:00:00,
2013-10-14 07:42:00,60.0,-99.9,-100.00,North,-999,2.0,4.0,60,-99.99,,,-99.99,,2013-10-14 13:42:00,
2013-10-14 07:52:00,60.0,-99.9,-100.00,North,-999,2.0,4.0,60,-99.99,,,-99.99,,2013-10-14 13:52:00,
2013-10-14 09:00:00,65.0,-99.9,-100.00,North,-999,4.0,8.0,57,-99.99,,,-99.99,,2013-10-14 15:00:00,
2013-10-14 09:44:00,65.0,-99.9,-100.00,North,-999,4.0,8.0,57,-99.99,,,-99.99,,2013-10-14 15:44:00,
2013-10-14 09:54:00,65.0,-99.9,-100.00,North,-999,4.0,8.0,57,-99.99,,,-99.99,,2013-10-14 15:54:00,
2013-10-14 10:00:00,68.0,-99.9,-100.00,North,-999,5.0,9.0,49,-99.99,,,-99.99,,2013-10-14 16:00:00,
2013-10-14 10:23:00,-999.0,-99.9,-100.00,North,-999,5.0,9.0,49,-99.99,,,-99.99,,2013-10-14 16:23:00,
2013-10-14 10:43:00,68.0,-99.9,-100.00,North,-999,5.0,9.0,49,-99.99,,,-99.99,,2013-10-14 16:43:00,
2013-10-14 10:53:00,68.0,-99.9,-100.00,North,-999,5.0,9.0,49,-99.99,,,-99.99,,2013-10-14 16:53:00,
2013-10-14 11:00:00,-999.0,-99.9,-100.00,North,-999,5.0,9.0,46,-99.99,,,-99.99,,2013-10-14 17:00:00,
2013-10-14 11:33:00,-999.0,-99.9,-100.00,North,-999,5.0,9.0,46,-99.99,,,-99.99,,2013-10-14 17:33:00,
2013-10-14 11:42:00,-999.0,-99.9,-100.00,North,-999,5.0,9.0,46,-99.99,,,-99.99,,2013-10-14 17:42:00,
2013-10-14 11:52:00,-999.0,-99.9,-100.00,North,-999,5.0,9.0,46,-99.99,,,-99.99,,2013-10-14 17:52:00,
2013-10-14 12:00:00,72.0,-99.9,-100.00,North,-999,8.0,15.0,42,-99.99,,,-99.99,,2013-10-14 18:00:00,
2013-10-14 12:22:00,-999.0,-99.9,-100.00,North,-999,8.0,15.0,42,-99.99,,,-99.99,,2013-10-14 18:22:00,
2013-10-14 12:43:00,72.0,-99.9,-100.00,North,-999,8.0,15.0,42,-99.99,,,-99.99,,2013-10-14 18:43:00,
2013-10-14 12:52:00,72.0,-99.9,-100.00,North,-999,8.0,15.0,42,-99.99,,,-99.99,,2013-10-14 18:52:00,
2013-10-14 13:00:00,73.0,-99.9,-100.00,North,-999,10.0,15.0,38,-99.99,,,-99.99,,2013-10-14 19:00:00,
2013-10-14 13:42:00,73.0,-99.9,-100.00,North,-999,10.0,15.0,38,-99.99,,,-99.99,,2013-10-14 19:42:00,
2013-10-14 13:52:00,73.0,-99.9,-100.00,North,-999,10.0,15.0,38,-99.99,,,-99.99,,2013-10-14 19:52:00,
2013-10-14 14:00:00,74.0,-99.9,-100.00,North,-999,11.0,19.0,36,-99.99,,,-99.99,,2013-10-14 20:00:00,
2013-10-14 14:43:00,74.0,-99.9,-100.00,North,-999,11.0,19.0,36,-99.99,,,-99.99,,2013-10-14 20:43:00,
2013-10-14 14:52:00,74.0,-99.9,-100.00,North,-999,11.0,19.0,36,-99.99,,,-99.99,,2013-10-14 20:52:00,
2013-10-14 15:00:00,-999.0,-99.9,-100.00,North,-999,11.0,19.0,35,-99.99,,,-99.99,,2013-10-14 21:00:00,
2013-10-14 15:34:00,-999.0,-99.9,-100.00,North,-999,11.0,19.0,35,-99.99,,,-99.99,,2013-10-14 21:34:00,
2013-10-14 15:44:00,-999.0,-99.9,-100.00,North,-999,11.0,19.0,35,-99.99,,,-99.99,,2013-10-14 21:44:00,
2013-10-14 15:55:00,-999.0,-99.9,-100.00,North,-999,11.0,19.0,35,-99.99,,,-99.99,,2013-10-14 21:55:00,
2013-10-14 16:00:00,74.0,-99.9,-100.00,North,-999,13.0,23.0,32,-99.99,,,-99.99,,2013-10-14 22:00:00,
2013-10-14 16:24:00,-999.0,-99.9,-100.00,North,-999,13.0,23.0,32,-99.99,,,-99.99,,2013-10-14 22:24:00,
2013-10-14 16:44:00,74.0,-99.9,-100.00,North,-999,13.0,23.0,32,-99.99,,,-99.99,,2013-10-14 22:44:00,
2013-10-14 16:54:00,74.0,-99.9,-100.00,North,-999,13.0,23.0,32,-99.99,,,-99.99,,2013-10-14 22:54:00,
2013-10-14 18:00:00,71.0,-99.9,-100.00,North,-999,12.0,18.0,32,-99.99,,,-99.99,,2013-10-15 00:00:00,
2013-10-14 18:22:00,-999.0,-99.9,-100.00,North,-999,12.0,18.0,32,-99.99,,,-99.99,,2013-10-15 00:22:00,
2013-10-14 18:43:00,71.0,-99.9,-100.00,North,-999,12.0,18.0,32,-99.99,,,-99.99,,2013-10-15 00:43:00,
2013-10-14 18:52:00,71.0,-99.9,-100.00,North,-999,12.0,18.0,32,-99.99,,,-99.99,,2013-10-15 00:52:00,
2013-10-14 19:00:00,69.0,-99.9,-100.00,North,-999,9.0,15.0,38,-99.99,,,-99.99,,2013-10-15 01:00:00,
2013-10-14 19:42:00,69.0,-99.9,-100.00,North,-999,9.0,15.0,38,-99.99,,,-99.99,,2013-10-15 01:42:00,
2013-10-14 19:52:00,69.0,-99.9,-100.00,North,-999,9.0,15.0,38,-99.99,,,-99.99,,2013-10-15 01:52:00,
2013-10-14 20:42:00,66.0,-99.9,-100.00,North,-999,-999.0,-999.0,-999,-99.99,,,-99.99,,2013-10-15 02:42:00,
2013-10-14 20:52:00,66.0,-99.9,-100.00,North,-999,-999.0,-999.0,-999,-99.99,,,-99.99,,2013-10-15 02:52:00,
2013-10-14 21:00:00,63.0,-99.9,-100.00,North,-999,5.0,10.0,48,-99.99,,,-99.99,,2013-10-15 03:00:00,
2013-10-14 21:03:00,66.0,-99.9,-100.00,North,-999,-999.0,-999.0,-999,-99.99,,,-99.99,,2013-10-15 03:03:00,
2013-10-14 21:23:00,-999.0,-99.9,-100.00,North,-999,5.0,10.0,48,-99.99,,,-99.99,,2013-10-15 03:23:00,
2013-10-14 21:44:00,63.0,-99.9,-100.00,North,-999,5.0,10.0,48,-99.99,,,-99.99,,2013-10-15 03:44:00,
2013-10-14 21:55:00,63.0,-99.9,-100.00,North,-999,5.0,10.0,48,-99.99,,,-99.99,,2013-10-15 03:55:00,
2013-10-14 22:24:00,-999.0,-99.9,-100.00,North,-999,2.0,4.0,52,-99.99,,,-99.99,,2013-10-15 04:24:00,
2013-10-14 23:22:00,-999.0,-99.9,-100.00,North,-999,2.0,4.0,52,-99.99,,,-99.99,,2013-10-15 05:22:00,